#datint,netname,site,siteID,timestamp,IntT,BattV,AirT2,AirT,AirT_Avg,AirT_Max,AirT_Min,RH_Avg,RH_Max,RH_Min,EA_Avg,Td_Avg,Td_Max,Td_Min,WindS_Smp,WindS_Avg,WindD_Avg,WindD_SD,WindS_Max,ETo,ETr,SoilT4,SoilT8,SoilVWC8,SolarW_Avg,wetstate_Avg,wetT_Avg,Precip_accum,Precip_WPG,Precip_TB
15min,AgWx,beryljct,423,21OCT2018:00:00:00,50.1,13,49.5,49.5,49.4,50.6,48.7,61,64,55,0.715,36.4,37.2,34.9,3.595,3.2,321,11,4.6,0.00001,0.00004,53.2,53.0,22,0,0,49.7,7.71,0.00,0.00
15min,AgWx,beryljct,423,21OCT2018:00:15:00,50.3,12.99,49.8,49.5,49.5,50.3,48.8,60,64,57,0.733,36.1,37.1,35.4,2.872,4.0,324,18,5.1,0.00006,0.00011,53.0,53.0,22,0,0,49.6,7.71,0.00,0.00
15min,AgWx,beryljct,423,21OCT2018:00:30:00,50.2,12.99,50.2,50.1,49.9,51.1,48.8,59,63,55,0.716,36.3,36.9,35.6,2.894,2.6,313,14,3.9,-0.00003,-0.00002,52.9,53.0,22,0,0,49.0,7.71,0.00,0.00
15min,AgWx,beryljct,423,21OCT2018:00:45:00,50.0,12.99,50.3,51.1,49.9,51.1,48.7,59,62,56,0.714,36.0,36.5,35.6,2.324,2.0,324,15,4.0,-0.00007,-0.00008,52.8,53.0,22,0,0,48.5,7.71,0.00,0.00
15min,AgWx,beryljct,423,21OCT2018:01:00:00,49.7,12.98,49.1,48.1,49.2,51.2,48.1,59,62,56,0.699,35.7,36.4,35.4,1.184,2.0,28,17,4.8,-0.00008,-0.00009,52.7,52.9,22,0,0,47.7,7.71,0.00,0.00
15min,AgWx,beryljct,423,21OCT2018:01:15:00,48.9,12.97,47.7,48.7,47.4,48.8,46.1,63,66,59,0.701,35.3,35.8,35.1,2.981,2.4,327,36,4.1,-0.00006,-0.00006,52.6,52.9,22,0,0,45.9,7.72,0.00,0.00
15min,AgWx,beryljct,423,21OCT2018:01:30:00,48.5,12.97,49.0,47.8,48.8,50.1,47.8,60,61,57,0.694,35.4,35.7,35.0,2.411,3.5,319,11,4.6,0.00003,0.00007,52.5,52.9,22,0,0,47.0,7.72,0.00,0.00
15min,AgWx,beryljct,423,21OCT2018:01:45:00,48.0,12.96,47.2,45.6,47.2,49.3,44.8,63,70,59,0.702,35.3,35.9,34.3,0,2.0,314,50,3.4,-0.00009,-0.00009,52.3,52.8,22,0,0,45.3,7.72,0.00,0.00
15min,AgWx,beryljct,423,21OCT2018:02:00:00,47.1,12.95,43.3,41.7,43.5,45.8,41.6,71,75,66,0.667,34.8,35.7,34.1,1.776,1.8,142,5.7,3.8,-0.00012,-0.00015,52.2,52.8,22,0,0,42.1,7.72,0.00,0.00
15min,AgWx,beryljct,423,21OCT2018:02:15:00,45.9,12.94,42.7,42.6,42.3,43.9,41.0,72,75,69,0.676,34.1,34.9,33.2,1.008,3.2,199,14,5.4,-0.00005,-0.00004,52.1,52.8,22,0,0,41.3,7.72,0.00,0.00
15min,AgWx,beryljct,423,21OCT2018:02:30:00,45.2,12.93,44.6,45.2,44.0,45.4,42.8,70,73,67,0.692,34.7,35.1,33.8,3.047,1.3,147,39,3.5,-0.00016,-0.00021,52.0,52.8,22,0,0,42.5,7.72,0.00,0.00
15min,AgWx,beryljct,423,21OCT2018:02:45:00,45.0,12.92,44.3,45.5,43.9,45.5,42.7,71,74,68,0.708,35.2,35.7,34.9,1.447,2.5,320,34,4.2,-0.00008,-0.00008,51.8,52.7,22,0,0,43.1,7.72,0.00,0.00
15min,AgWx,beryljct,423,21OCT2018:03:00:00,44.6,12.92,42.4,40.4,42.7,45.7,40.4,73,77,66,0.649,34.6,35.8,33.5,3.179,1.3,355,10,3.2,-0.00016,-0.00022,51.7,52.7,22,0,0,41.6,7.72,0.00,0.00
15min,AgWx,beryljct,423,21OCT2018:03:15:00,43.8,12.91,41.8,41.7,41.3,42.9,39.9,75,79,71,0.654,34.1,35.1,33.5,0,1.8,322,3.1,3.3,-0.00012,-0.00015,51.6,52.6,22,0,0,39.9,7.72,0.00,0.00
15min,AgWx,beryljct,423,21OCT2018:03:30:00,43.1,12.9,42.1,41.9,41.7,42.7,40.7,74,76,72,0.664,34.0,34.7,33.3,0.636,0.8,322,0.6,1.4,-0.00020,-0.00028,51.4,52.6,22,0,0,39.5,7.72,0.00,0.00
15min,AgWx,beryljct,423,21OCT2018:03:45:00,42.5,12.9,40.8,38.6,40.9,42.5,38.6,75,80,71,0.637,33.7,34.4,33.1,3.617,1.8,111,48,4.0,-0.00013,-0.00016,51.3,52.6,22,0,0,38.9,7.72,0.00,0.00
15min,AgWx,beryljct,423,21OCT2018:04:00:00,41.7,12.9,37.7,37.0,37.5,38.5,36.6,82,83,80,0.606,32.4,33.0,31.6,3.332,2.8,151,21,3.9,-0.00009,-0.00011,51.2,52.5,22,0,0,36.9,7.72,0.00,0.00
15min,AgWx,beryljct,423,21OCT2018:04:15:00,40.8,12.89,38.5,38.9,37.9,38.9,37.0,81,82,79,0.640,32.4,33.2,31.8,3.091,2.6,192,8.6,4.1,-0.00010,-0.00011,51.0,52.5,22,0,0,36.8,7.72,0.00,0.00
15min,AgWx,beryljct,423,21OCT2018:04:30:00,40.4,12.86,40.0,40.6,39.4,40.6,38.7,77,80,75,0.645,32.7,33.7,32.0,2.762,3.1,190,9.1,3.9,-0.00006,-0.00006,50.9,52.4,22,0,0,38.2,7.72,0.00,0.00
15min,AgWx,beryljct,423,21OCT2018:04:45:00,40.4,12.87,40.9,39.0,40.6,42.3,39.0,75,78,71,0.628,33.2,34.7,32.4,0,1.0,195,0.0,2.8,-0.00018,-0.00024,50.7,52.4,22,0,0,39.1,7.72,0.00,0.00
15min,AgWx,beryljct,423,21OCT2018:05:00:00,39.9,12.87,37.0,35.1,37.1,39.0,35.1,81,84,78,0.577,31.8,33.1,30.5,2.499,2.4,284,39,4.0,-0.00010,-0.00013,50.6,52.3,22,0,0,36.5,7.72,0.00,0.00
15min,AgWx,beryljct,423,21OCT2018:05:15:00,39.3,12.85,36.3,36.2,35.8,37.0,35.0,83,85,79,0.585,31.0,31.6,30.3,0.153,0.9,301,0.5,2.7,-0.00017,-0.00024,50.4,52.3,22,0,0,35.5,7.72,0.00,0.00
15min,AgWx,beryljct,423,21OCT2018:05:30:00,38.9,12.86,38.7,38.0,38.0,39.7,36.0,80,83,76,0.594,32.4,33.9,30.7,0.11,0.8,298,0.1,3.1,-0.00019,-0.00027,50.3,52.2,22,0,0,36.5,7.72,0.00,0.00
15min,AgWx,beryljct,423,21OCT2018:05:45:00,38.8,12.84,38.9,37.3,38.6,40.7,36.7,79,85,74,0.575,32.5,34.6,30.5,2.938,2.0,308,11,4.1,-0.00012,-0.00015,50.1,52.2,22,0,0,37.8,7.72,0.00,0.00
15min,AgWx,beryljct,423,21OCT2018:06:00:00,38.6,12.83,35.4,36.0,35.2,37.1,34.6,82,83,77,0.574,30.2,31.1,29.8,3.968,2.8,321,5.5,4.0,-0.00009,-0.00010,50.0,52.1,22,0,0,35.8,7.72,0.00,0.00
15min,AgWx,beryljct,423,21OCT2018:06:15:00,38.4,12.84,35.7,35.0,35.3,36.1,34.8,83,85,80,0.588,30.6,31.5,29.9,3.705,3.9,320,3.0,5.0,-0.00006,-0.00006,49.8,52.1,22,0,0,35.9,7.72,0.00,0.00
15min,AgWx,beryljct,423,21OCT2018:06:30:00,38.2,12.84,36.3,36.9,35.6,36.9,35.0,85,87,84,0.622,31.7,32.7,30.9,2.631,2.9,325,2.9,3.7,-0.00010,-0.00011,49.7,52.0,22,0,0,36.0,7.72,0.00,0.00
15min,AgWx,beryljct,423,21OCT2018:06:45:00,38.4,12.82,39.7,40.0,38.9,40.5,36.9,80,85,76,0.639,33.3,34.5,32.2,2.039,1.1,308,7.0,3.2,-0.00017,-0.00023,49.6,52.0,22,0,0,38.2,7.72,0.00,0.00
15min,AgWx,beryljct,423,21OCT2018:07:00:00,38.8,12.81,38.6,38.2,38.4,39.7,37.8,83,85,76,0.648,33.6,34.5,32.9,1.359,0.7,43,15,2.1,-0.00020,-0.00029,49.4,51.9,22,0,0,39.0,7.72,0.00,0.00
15min,AgWx,beryljct,423,21OCT2018:07:15:00,39.2,12.81,38.6,38.7,38.1,38.7,37.6,85,86,83,0.665,34.0,34.4,33.5,3.047,1.7,64,59,4.1,0.00005,0.00009,49.3,51.8,22,0,0,39.1,7.72,0.00,0.00
15min,AgWx,beryljct,423,21OCT2018:07:30:00,40.2,12.82,42.7,47.4,41.2,47.4,38.7,80,84,68,0.761,35.4,37.6,33.9,7.717,6.8,207,21,13.6,0.00024,0.00042,49.2,51.8,22,0,0,42.6,7.72,0.00,0.00
15min,AgWx,beryljct,423,21OCT2018:07:45:00,43.4,12.81,50.5,50.9,49.7,50.9,47.5,65,68,63,0.844,38.3,40.2,37.2,15.26,9.5,226,13,15.3,0.00064,0.00111,49.1,51.7,22,0,4,50.1,7.72,0.00,0.00
15min,AgWx,beryljct,423,21OCT2018:08:00:00,45.4,12.81,50.1,49.3,50.0,51.2,49.2,77,82,67,0.973,43.0,44.0,40.3,8.26,12.3,249,7.8,17.0,0.00052,0.00090,49.0,51.7,22,1,78,47.6,7.75,0.03,0.02
15min,AgWx,beryljct,423,21OCT2018:08:15:00,46.6,12.82,49.3,49.2,49.0,49.3,48.8,83,84,82,0.995,44.2,44.6,43.8,5.7,7.2,268,10,10.1,0.00025,0.00043,48.9,51.6,22,1,73,47.9,7.76,0.01,0.01
15min,AgWx,beryljct,423,21OCT2018:08:30:00,47.4,12.82,49.9,49.4,49.6,50.0,49.2,84,85,82,1.015,44.8,45.0,44.5,6.16,8.6,229,9.1,13.0,0.00028,0.00049,48.9,51.5,22,1,100,48.4,7.80,0.04,0.03
15min,AgWx,beryljct,423,21OCT2018:08:45:00,47.9,12.81,48.6,47.6,48.3,49.4,47.6,92,96,85,1.080,46.1,46.7,45.1,4.976,6.4,215,9.4,9.2,0.00011,0.00019,48.9,51.5,22,1,100,48.3,7.85,0.05,0.06
15min,AgWx,beryljct,423,21OCT2018:09:00:00,48.2,12.81,48.5,47.6,47.6,47.7,47.6,97,97,96,1.088,46.7,46.8,46.6,0,2.2,217,6.6,6.0,0.00004,0.00005,48.9,51.4,22,3,100,48.2,7.90,0.05,0.04
15min,AgWx,beryljct,423,21OCT2018:09:15:00,48.2,12.83,47.7,46.8,47.0,47.6,46.8,97,97,97,1.058,46.3,46.7,46.0,4.889,4.2,56,23,5.3,0.00008,0.00011,48.9,51.4,22,10,100,48.0,7.92,0.02,0.03
15min,AgWx,beryljct,423,21OCT2018:09:30:00,48.1,12.84,47.6,47.0,47.0,47.1,46.8,97,98,97,1.069,46.3,46.5,46.0,3.814,2.2,6.4,28,5.4,0.00014,0.00016,48.9,51.3,22,24,100,48.3,7.94,0.01,0.01
15min,AgWx,beryljct,423,21OCT2018:09:45:00,48.2,12.87,47.6,47.0,47.0,47.1,47.0,98,98,97,1.071,46.4,46.5,46.3,4.406,3.3,330,24,5.2,0.00026,0.00029,48.9,51.3,22,47,100,48.7,7.95,0.02,0.02
15min,AgWx,beryljct,423,21OCT2018:10:00:00,48.3,12.88,47.7,47.3,47.2,47.3,47.0,98,98,98,1.082,46.5,46.7,46.4,7.782,5.7,2.7,12,8.4,0.00030,0.00033,49.0,51.2,22,57,100,48.8,7.95,0.00,0.00
15min,AgWx,beryljct,423,21OCT2018:10:15:00,48.4,12.92,47.9,47.4,47.3,47.4,47.2,98,98,98,1.087,46.7,46.9,46.6,7.322,7.6,15,12,10.5,0.00031,0.00036,49.0,51.2,22,64,57,48.9,7.95,0.00,0.00
15min,AgWx,beryljct,423,21OCT2018:10:30:00,48.6,12.98,48.2,47.5,47.5,47.6,47.3,98,98,98,1.092,46.9,47.1,46.7,4.713,5.8,355,9.1,8.1,0.00044,0.00049,49.0,51.2,22,89,0,49.6,7.95,0.00,0.00
15min,AgWx,beryljct,423,21OCT2018:10:45:00,48.9,13.03,48.5,48.0,47.8,48.1,47.4,98,98,98,1.115,47.2,47.5,46.9,4.341,5.9,335,15,7.5,0.00066,0.00072,49.1,51.1,22,136,0,51.2,7.96,0.00,0.00
15min,AgWx,beryljct,423,21OCT2018:11:00:00,49.4,13.07,49.0,48.4,48.3,48.8,48.0,98,98,98,1.129,47.7,48.2,47.4,6.423,5.2,303,9.5,6.9,0.00079,0.00086,49.1,51.1,22,162,0,53.7,7.95,0.00,0.00
15min,AgWx,beryljct,423,21OCT2018:11:15:00,50.0,13.18,49.8,48.9,48.7,49.1,48.3,98,98,98,1.149,48.1,48.5,47.7,3.814,4.2,317,10,6.8,0.00086,0.00093,49.2,51.1,22,169,0,55.1,7.95,0.00,0.00
15min,AgWx,beryljct,423,21OCT2018:11:30:00,50.7,13.29,50.5,49.7,49.3,49.7,48.9,97,98,96,1.161,48.5,48.9,48.2,4.713,4.5,310,12,6.1,0.00106,0.00114,49.3,51.1,22,215,0,57.2,7.95,0.00,0.00
15min,AgWx,beryljct,423,21OCT2018:11:45:00,51.5,13.3,51.2,50.9,50.7,51.1,49.5,90,96,84,1.062,47.8,48.9,46.2,3.288,3.9,280,10,6.1,0.00110,0.00123,49.4,51.1,22,198,0,57.7,7.95,0.00,0.00
15min,AgWx,beryljct,423,21OCT2018:12:00:00,52.2,13.44,51.5,51.3,51.2,51.4,50.9,82,84,80,1.030,45.9,46.7,45.0,1.14,2.4,284,9.7,3.6,0.00111,0.00125,49.5,51.0,22,184,0,58.0,7.95,0.00,0.00
15min,AgWx,beryljct,423,21OCT2018:12:15:00,53.2,13.87,51.9,51.8,51.6,51.9,51.3,80,82,79,1.063,45.6,46.6,45.0,4.669,2.3,8.3,40,5.0,0.00201,0.00221,49.6,51.0,22,377,0,65.0,7.95,0.00,0.00
15min,AgWx,beryljct,423,21OCT2018:12:30:00,54.2,14.32,52.3,52.5,52.0,52.5,51.7,81,83,80,1.091,46.4,47.2,45.8,4.932,4.3,58,14,6.0,0.00187,0.00211,49.8,51.0,22,352,0,63.7,7.95,0.00,0.00
15min,AgWx,beryljct,423,21OCT2018:12:45:00,55.3,14.43,53.2,53.5,52.9,53.7,52.4,82,86,79,1.148,47.7,49.6,46.2,7.3,6.2,79,13,8.6,0.00292,0.00326,49.9,51.0,22,619,0,67.7,7.95,0.00,0.00
15min,AgWx,beryljct,423,21OCT2018:13:00:00,56.6,14.34,52.8,53.2,52.7,53.4,52.1,82,85,79,1.169,47.3,48.8,46.1,5.744,5.9,73,13,8.9,0.00247,0.00279,50.2,51.0,22,501,0,68.4,7.94,0.00,0.00
15min,AgWx,beryljct,423,21OCT2018:13:15:00,57.3,14.34,53.0,52.6,52.9,53.4,52.5,81,84,79,1.069,47.4,48.7,46.2,1.841,4.8,69,17,7.8,0.00212,0.00240,50.4,51.1,22,412,0,66.6,7.94,0.00,0.00
15min,AgWx,beryljct,423,21OCT2018:13:30:00,57.8,14.29,53.5,53.0,53.3,54.1,52.7,80,84,77,1.069,47.2,49.4,46.1,0.702,3.3,58,19,6.1,0.00218,0.00243,50.8,51.1,22,413,0,67.1,7.94,0.00,0.00
15min,AgWx,beryljct,423,21OCT2018:13:45:00,58.1,13.6,53.6,53.2,53.4,53.9,53.1,79,83,78,1.079,47.2,48.7,46.5,1.929,2.9,53,19,5.5,0.00156,0.00177,51.1,51.1,22,273,0,66.1,7.94,0.00,0.00
15min,AgWx,beryljct,423,21OCT2018:14:00:00,57.9,13.47,53.5,53.4,53.3,53.6,53.2,79,81,77,1.123,46.9,47.9,46.2,1.929,2.1,89,20,4.9,0.00091,0.00105,51.5,51.1,22,135,0,61.4,7.94,0.00,0.00
15min,AgWx,beryljct,423,21OCT2018:14:15:00,57.2,13.48,53.3,52.9,53.2,53.6,52.9,81,83,78,1.103,47.3,48.7,46.6,0.702,1.0,69,31,2.6,0.00096,0.00106,51.8,51.2,22,154,50,62.8,7.96,0.02,0.01
15min,AgWx,beryljct,423,21OCT2018:14:30:00,56.4,14.34,53.3,54.0,53.0,54.1,52.8,81,84,79,1.184,47.2,49.3,46.7,2.85,1.1,34,6.4,3.2,0.00205,0.00223,52.1,51.2,22,401,0,61.5,7.95,0.00,0.00
15min,AgWx,beryljct,423,21OCT2018:14:45:00,57.4,14.27,54.3,54.4,54.1,54.6,53.8,79,84,74,1.063,47.8,49.5,46.2,4.757,2.9,32,40,5.3,0.00331,0.00363,52.4,51.3,22,648,0,67.8,7.95,0.00,0.00
15min,AgWx,beryljct,423,21OCT2018:15:00:00,59.2,14.21,55.2,55.2,55.0,55.6,54.2,70,76,64,0.978,45.4,47.4,43.6,4.319,3.3,40,12,6.4,0.00315,0.00352,52.6,51.4,22,608,0,66.9,7.95,0.00,0.00
15min,AgWx,beryljct,423,21OCT2018:15:15:00,61.0,14.17,55.9,56.1,55.7,56.2,55.2,66,72,61,1.028,44.7,47.2,42.5,1.973,3.1,26,30,5.6,0.00292,0.00329,52.9,51.5,22,558,0,66.0,7.95,0.00,0.00
15min,AgWx,beryljct,423,21OCT2018:15:30:00,62.3,13.78,56.4,56.1,56.3,56.8,56.1,65,71,59,0.913,44.5,47.3,42.0,0.088,3.5,350,14,6.0,0.00267,0.00307,53.1,51.5,22,509,0,64.2,7.95,0.00,0.00
15min,AgWx,beryljct,423,21OCT2018:15:45:00,63.3,13.79,56.7,57.0,56.6,57.3,56.2,61,67,57,1.011,43.5,46.6,41.4,5.787,2.4,1.3,18,6.5,0.00271,0.00306,53.3,51.6,22,513,0,66.0,7.95,0.00,0.00
15min,AgWx,beryljct,423,21OCT2018:16:00:00,64.4,13.76,57.1,57.5,57.0,57.5,56.6,62,64,60,0.980,44.3,45.2,43.4,5.086,2.4,351,28,6.3,0.00243,0.00276,53.4,51.7,22,464,0,65.2,7.94,0.00,0.00
15min,AgWx,beryljct,423,21OCT2018:16:15:00,65.2,13.69,57.6,57.4,57.6,57.9,57.1,61,65,58,0.977,44.4,46.1,42.7,2.521,3.6,33,22,6.6,0.00249,0.00290,53.6,51.8,22,465,0,65.0,7.94,0.00,0.00
15min,AgWx,beryljct,423,21OCT2018:16:30:00,65.8,13.68,57.9,57.9,57.8,58.3,57.3,62,65,60,1.056,44.9,46.6,43.6,1.973,2.7,349,37,5.5,0.00213,0.00245,53.8,51.9,22,408,0,64.8,7.94,0.00,0.00
15min,AgWx,beryljct,423,21OCT2018:16:45:00,66.1,13.66,58.0,57.9,57.9,58.3,57.6,65,67,62,1.073,46.0,47.4,45.0,0.614,2.4,58,20,5.0,0.00186,0.00215,54.0,51.9,22,366,0,64.5,7.94,0.00,0.00
15min,AgWx,beryljct,423,21OCT2018:17:00:00,66.3,13.71,58.1,58.2,58.0,58.4,57.6,65,68,63,1.087,46.2,48.0,45.3,2.696,2.3,350,36,5.8,0.00160,0.00186,54.2,52.0,22,325,0,64.6,7.93,0.00,0.00
15min,AgWx,beryljct,423,21OCT2018:17:15:00,66.2,13.72,58.0,58.0,57.9,58.2,57.6,64,66,63,1.046,45.9,47.1,45.3,1.578,2.0,1.1,38,5.3,0.00132,0.00154,54.4,52.1,22,280,0,62.5,7.93,0.00,0.00
15min,AgWx,beryljct,423,21OCT2018:17:30:00,66.1,13.67,58.4,58.3,58.2,58.6,57.9,65,68,63,1.057,46.5,48.2,45.4,2.981,1.8,47,30,4.7,0.00103,0.00122,54.6,52.2,22,235,0,62.3,7.93,0.00,0.00
15min,AgWx,beryljct,423,21OCT2018:17:45:00,65.6,13.73,58.2,58.1,58.1,58.4,57.9,65,68,64,1.064,46.6,47.6,46.1,2.236,2.8,342,20,4.4,0.00083,0.00106,54.8,52.3,22,192,0,59.9,7.93,0.00,0.00
15min,AgWx,beryljct,423,21OCT2018:18:00:00,64.7,13.75,58.1,57.4,58.0,58.4,57.4,66,70,64,1.119,46.9,48.2,45.9,3.179,2.9,1.6,18,4.8,0.00034,0.00047,55.0,52.3,22,147,0,60.0,7.93,0.00,0.00
15min,AgWx,beryljct,423,21OCT2018:18:15:00,63.5,13.78,57.3,56.7,57.2,57.6,56.7,69,71,66,1.099,47.0,47.7,46.2,3.836,3.2,348,11,4.9,0.00023,0.00032,55.1,52.4,22,106,0,59.1,7.93,0.00,0.00
15min,AgWx,beryljct,423,21OCT2018:18:30:00,61.9,13.39,56.3,55.9,56.3,56.7,55.7,71,73,69,1.114,47.1,47.9,46.6,2.521,3.6,352,6.9,5.2,0.00012,0.00018,55.2,52.5,22,62,0,56.0,7.94,0.00,0.00
15min,AgWx,beryljct,423,21OCT2018:18:45:00,59.8,13.26,55.2,54.6,55.2,55.9,54.6,73,74,72,1.075,46.8,47.3,46.5,2.433,2.8,355,2.7,3.5,-0.00006,-0.00006,55.3,52.6,22,11,0,53.5,7.94,0.00,0.00
15min,AgWx,beryljct,423,21OCT2018:19:00:00,57.4,13.19,53.7,52.9,53.7,54.6,52.9,76,78,74,1.070,46.3,46.6,45.9,0.548,1.8,355,3.8,2.7,-0.00015,-0.00019,55.4,52.7,22,4,0,51.2,7.94,0.00,0.00
15min,AgWx,beryljct,423,21OCT2018:19:15:00,55.4,13.17,53.6,52.1,53.4,54.1,52.1,76,79,74,1.007,46.1,46.8,44.8,1.096,1.2,335,8.9,1.9,-0.00021,-0.00029,55.4,52.8,22,0,0,50.1,7.94,0.00,0.00
15min,AgWx,beryljct,423,21OCT2018:19:30:00,53.6,13.15,51.5,53.1,51.2,53.1,50.1,80,82,76,1.050,45.2,46.1,44.3,1.184,1.2,329,0.1,1.4,-0.00022,-0.00030,55.3,52.9,22,0,0,48.5,7.94,0.00,0.00
15min,AgWx,beryljct,423,21OCT2018:19:45:00,52.4,13.13,53.0,51.9,52.9,53.4,51.9,76,78,74,1.026,45.5,45.9,45.2,2.85,1.5,327,7.1,3.1,-0.00019,-0.00025,55.2,53.0,22,0,0,50.0,7.94,0.00,0.00
15min,AgWx,beryljct,423,21OCT2018:20:00:00,51.5,13.12,51.7,51.9,51.5,52.1,51.1,78,79,77,1.017,44.9,45.3,44.5,3.047,2.2,300,2.9,3.0,-0.00014,-0.00018,55.1,53.0,22,0,0,49.0,7.94,0.00,0.00
15min,AgWx,beryljct,423,21OCT2018:20:15:00,50.6,13.11,52.1,51.8,51.8,52.3,51.2,77,79,76,1.007,45.0,45.3,44.6,2.828,2.8,278,0.3,3.3,-0.00011,-0.00012,55.0,53.1,22,0,0,49.6,7.95,0.00,0.00
15min,AgWx,beryljct,423,21OCT2018:20:30:00,49.7,13.1,48.1,48.4,48.3,51.8,46.8,83,88,77,0.991,43.5,44.8,42.6,2.148,2.3,279,1.3,2.9,-0.00015,-0.00019,54.8,53.2,22,0,0,46.9,7.95,0.00,0.00
15min,AgWx,beryljct,423,21OCT2018:20:45:00,48.6,13.08,46.6,46.1,46.6,48.5,46.1,87,89,82,0.937,42.9,44.3,42.2,0,1.1,278,0.3,2.2,-0.00022,-0.00031,54.6,53.2,22,0,0,44.3,7.95,0.00,0.00
15min,AgWx,beryljct,423,21OCT2018:21:00:00,47.8,13.07,46.4,45.4,46.2,46.8,45.4,88,89,86,0.912,42.7,43.3,42.0,0.241,1.0,278,0.3,1.9,-0.00023,-0.00032,54.4,53.3,22,0,0,43.3,7.95,0.00,0.00
15min,AgWx,beryljct,423,21OCT2018:21:15:00,47.4,13.07,46.9,45.5,46.6,47.8,45.2,88,91,86,0.913,43.3,44.8,42.1,4.012,3.3,165,19,4.9,-0.00013,-0.00016,54.2,53.3,22,0,0,44.7,7.95,0.00,0.00
15min,AgWx,beryljct,423,21OCT2018:21:30:00,47.1,13.07,45.2,45.2,45.0,45.5,44.8,91,92,88,0.939,42.4,43.0,41.9,1.71,2.3,191,0.9,3.9,-0.00017,-0.00022,54.0,53.3,22,0,0,44.0,7.95,0.00,0.00
15min,AgWx,beryljct,423,21OCT2018:21:45:00,46.6,13.06,45.5,45.2,45.3,46.2,44.3,91,93,87,0.936,42.8,43.9,41.3,1.798,1.5,326,60,5.1,-0.00021,-0.00028,53.9,53.3,22,0,0,43.8,7.96,0.00,0.00
15min,AgWx,beryljct,423,21OCT2018:22:00:00,46.3,13.04,44.5,43.5,44.4,45.3,43.4,91,93,88,0.887,42.0,43.2,40.8,0,0.4,339,3.1,2.3,-0.00026,-0.00039,53.7,53.3,22,0,0,43.4,7.96,0.00,0.00
15min,AgWx,beryljct,423,21OCT2018:22:15:00,46.0,13.05,45.5,45.2,44.9,45.7,43.5,92,93,89,0.932,42.7,43.3,41.5,0,0.1,316,0.0,0.9,-0.00028,-0.00044,53.4,53.3,22,0,0,43.5,7.96,0.00,0.00
15min,AgWx,beryljct,423,21OCT2018:22:30:00,45.8,13.04,45.4,45.2,45.1,45.5,44.7,91,92,90,0.923,42.5,43.1,42.0,0.46,0.0,319,1.2,0.5,-0.00029,-0.00046,53.3,53.3,22,0,0,43.6,7.96,0.00,0.00
15min,AgWx,beryljct,423,21OCT2018:22:45:00,45.8,13.02,45.5,44.4,45.2,45.7,44.4,91,92,90,0.905,42.7,43.3,41.8,0.811,0.3,321,1.7,0.9,-0.00027,-0.00041,53.1,53.3,22,0,0,43.8,7.96,0.00,0.00
15min,AgWx,beryljct,423,21OCT2018:23:00:00,45.9,13.02,46.4,44.7,46.0,47.2,44.6,89,93,87,0.884,43.0,44.6,41.3,1.578,1.4,316,2.5,2.3,-0.00021,-0.00028,52.9,53.3,22,0,0,44.9,7.96,0.00,0.00
15min,AgWx,beryljct,423,21OCT2018:23:15:00,46.0,13.01,44.7,44.2,44.5,45.3,43.9,90,92,88,0.904,41.9,42.6,41.2,0.745,1.1,338,6.2,3.4,-0.00022,-0.00031,52.7,53.3,22,0,0,44.1,7.96,0.00,0.00
15min,AgWx,beryljct,423,21OCT2018:23:30:00,45.9,13,44.3,43.6,44.1,44.8,43.6,92,93,91,0.894,41.9,42.4,41.6,2.674,2.3,56,40,3.4,-0.00017,-0.00022,52.5,53.2,22,0,0,44.0,7.96,0.00,0.00
15min,AgWx,beryljct,423,21OCT2018:23:45:00,45.8,12.99,43.8,43.5,43.5,43.7,43.3,93,94,93,0.899,41.7,41.9,41.5,3.573,2.8,86,24,4.1,-0.00016,-0.00020,52.3,53.2,22,0,0,43.4,7.96,0.00,0.00
15min,AgWx,beryljct,423,22OCT2018:00:00:00,45.6,12.99,44.0,43.4,43.7,43.9,43.3,94,94,93,0.895,42.1,42.3,41.6,0,1.8,123,2.2,3.4,-0.00019,-0.00025,52.2,53.2,22,0,0,43.2,7.96,0.00,0.00
15min,AgWx,beryljct,423,22OCT2018:00:15:00,45.0,12.97,43.2,42.5,42.9,43.4,42.5,94,95,93,0.871,41.4,41.9,40.9,0,0.1,122,0.1,0.9,-0.00027,-0.00043,52.0,53.1,22,0,0,41.4,7.96,0.00,0.00
15min,AgWx,beryljct,423,22OCT2018:00:30:00,44.3,12.96,42.8,42.2,42.5,43.0,42.2,95,95,94,0.867,41.2,41.8,40.8,4.253,1.4,125,9.1,4.6,-0.00021,-0.00029,51.9,53.1,22,0,100,41.6,7.96,0.00,0.00
15min,AgWx,bigpiney,439,21OCT2018:00:00:00,31.8,12.69,25.4,24.5,25.4,27.5,24.4,77,80,70,0.360,19.1,20.0,18.6,4.889,4.9,205,9.1,5.7,-0.00002,-0.00001,42.0,42.5,30,0,0,0.0,.,0.00,0.00
15min,AgWx,bigpiney,439,21OCT2018:00:15:00,30.9,12.67,27.3,27.4,26.5,27.9,24.4,77,81,73,0.372,20.2,21.9,19.1,3.902,4.6,234,5.4,5.4,-0.00003,-0.00002,41.9,42.4,30,0,0,0.0,.,0.00,0.00
15min,AgWx,bigpiney,439,21OCT2018:00:30:00,30.3,12.67,26.8,25.4,26.7,28.1,25.4,76,78,73,0.361,20.0,21.8,18.8,4.099,4.1,229,6.9,5.1,-0.00004,-0.00003,41.8,42.5,30,0,0,0.0,.,0.00,0.00
15min,AgWx,bigpiney,439,21OCT2018:00:45:00,29.9,12.66,29.3,33.6,28.4,33.8,24.6,73,79,61,0.399,20.6,22.6,17.6,0.899,2.1,218,11,4.1,-0.00009,-0.00011,41.8,42.4,30,0,0,0.0,.,0.00,0.00
15min,AgWx,bigpiney,439,21OCT2018:01:00:00,29.4,12.66,34.5,33.3,34.0,34.5,33.3,61,62,60,0.396,21.9,22.3,21.5,1.6,0.2,214,21,1.6,-0.00025,-0.00038,41.7,42.4,30,0,0,0.0,.,0.00,0.00
15min,AgWx,bigpiney,439,21OCT2018:01:15:00,29.4,12.65,30.0,30.6,29.9,33.2,26.1,66,73,62,0.388,20.0,21.5,16.7,1.556,2.4,270,28,4.3,-0.00007,-0.00008,41.6,42.5,30,0,0,0.0,.,0.00,0.00
15min,AgWx,bigpiney,439,21OCT2018:01:30:00,29.0,12.64,26.3,23.6,26.7,31.0,23.0,70,77,63,0.331,18.0,21.2,15.6,3.727,3.3,240,20,5.0,-0.00004,-0.00003,41.5,42.4,30,0,0,0.0,.,0.00,0.00
15min,AgWx,bigpiney,439,21OCT2018:01:45:00,28.3,12.63,24.5,26.7,23.8,27.8,21.4,77,83,68,0.337,17.7,20.8,15.9,2.784,2.8,267,17,4.2,-0.00007,-0.00008,41.4,42.5,30,0,0,0.0,.,0.00,0.00
15min,AgWx,bigpiney,439,21OCT2018:02:00:00,27.8,12.62,24.3,22.9,24.2,26.4,22.5,74,79,68,0.330,17.3,19.3,15.9,4.231,4.3,236,12,6.4,-0.00002,-0.00002,41.3,42.5,30,0,0,0.0,.,0.00,0.00
15min,AgWx,bigpiney,439,21OCT2018:02:15:00,27.4,12.61,24.3,24.6,23.7,25.0,22.3,77,79,75,0.344,17.5,18.6,16.4,3.858,3.6,238,12,5.2,-0.00005,-0.00005,41.2,42.5,30,0,0,0.0,.,0.00,0.00
15min,AgWx,bigpiney,439,21OCT2018:02:30:00,27.2,12.6,24.6,24.7,24.3,24.8,23.1,76,78,75,0.347,17.8,18.5,16.7,4.384,3.8,236,16,5.5,-0.00004,-0.00004,41.2,42.4,30,0,0,0.0,.,0.00,0.00
15min,AgWx,bigpiney,439,21OCT2018:02:45:00,27.3,12.6,24.9,24.2,24.6,25.1,24.2,76,77,76,0.342,18.3,18.7,17.9,5.174,4.6,229,7.9,6.0,-0.00003,-0.00002,41.1,42.4,30,0,0,0.0,.,0.00,0.00
15min,AgWx,bigpiney,439,21OCT2018:03:00:00,27.4,12.58,27.5,29.1,26.6,29.1,24.2,75,79,71,0.390,19.8,21.1,17.6,3.354,3.2,275,20,4.9,-0.00006,-0.00006,41.0,42.4,30,0,0,0.0,.,0.00,0.00
15min,AgWx,bigpiney,439,21OCT2018:03:15:00,27.8,12.56,28.0,27.3,27.7,30.3,24.9,70,75,67,0.358,19.1,21.3,16.5,1.03,2.3,340,45,4.1,-0.00008,-0.00009,40.9,42.4,30,0,0,0.0,.,0.00,0.00
15min,AgWx,bigpiney,439,21OCT2018:03:30:00,27.9,12.56,28.6,28.7,28.1,29.3,27.1,69,72,67,0.359,19.4,20.4,18.5,2.258,1.4,152,51,3.7,-0.00013,-0.00017,40.8,42.4,31,0,0,0.0,.,0.00,0.00
15min,AgWx,bigpiney,439,21OCT2018:03:45:00,27.9,12.54,24.1,24.2,24.3,28.4,22.9,77,81,67,0.357,18.0,19.1,17.0,2.85,2.0,181,27,3.6,-0.00010,-0.00012,40.7,42.4,31,0,0,0.0,.,0.00,0.00
15min,AgWx,bigpiney,439,21OCT2018:04:00:00,27.6,12.55,25.9,25.4,25.6,26.9,24.4,77,80,72,0.339,19.3,20.1,17.9,1.666,2.5,215,9.5,3.6,-0.00008,-0.00010,40.7,42.4,30,0,0,0.0,.,0.00,0.00
15min,AgWx,bigpiney,439,21OCT2018:04:15:00,27.3,12.54,23.8,25.4,23.6,25.4,21.7,78,81,73,0.355,17.7,19.3,16.2,0.789,1.9,223,14,2.9,-0.00010,-0.00013,40.6,42.4,31,0,0,0.0,.,0.00,0.00
15min,AgWx,bigpiney,439,21OCT2018:04:30:00,26.9,12.52,26.9,26.9,26.2,27.5,24.4,73,75,67,0.362,18.8,19.5,15.4,0,0.2,247,12,2.0,-0.00021,-0.00033,40.5,42.4,31,0,0,0.0,.,0.00,0.00
15min,AgWx,bigpiney,439,21OCT2018:04:45:00,26.5,12.5,27.1,29.0,26.6,29.0,24.3,72,76,68,0.369,18.9,20.1,15.7,0.811,0.9,193,27,2.5,-0.00016,-0.00021,40.4,42.4,31,0,0,0.0,.,0.00,0.00
15min,AgWx,bigpiney,439,21OCT2018:05:00:00,26.0,12.5,26.1,23.0,26.3,28.9,23.0,72,80,67,0.329,18.6,19.7,17.1,0.943,1.7,165,24,3.9,-0.00011,-0.00014,40.4,42.4,30,0,0,0.0,.,0.00,0.00
15min,AgWx,bigpiney,439,21OCT2018:05:15:00,25.7,12.49,24.6,27.4,23.8,27.5,21.9,81,85,75,0.377,18.8,21.0,16.8,0.811,0.8,158,53,2.0,-0.00016,-0.00022,40.3,42.4,31,0,0,0.0,.,0.00,0.00
15min,AgWx,bigpiney,439,21OCT2018:05:30:00,25.4,12.49,25.7,24.8,25.5,27.4,23.7,77,80,73,0.345,19.2,20.3,17.1,0.57,0.6,175,31,2.3,-0.00017,-0.00025,40.2,42.3,30,0,0,0.0,.,0.00,0.00
15min,AgWx,bigpiney,439,21OCT2018:05:45:00,25.1,12.48,26.8,27.1,26.1,27.2,24.8,76,78,72,0.363,19.6,20.1,18.5,1.754,1.1,338,25,2.8,-0.00015,-0.00020,40.2,42.3,31,0,0,0.0,.,0.00,0.00
15min,AgWx,bigpiney,439,21OCT2018:06:00:00,25.1,12.45,23.6,23.1,23.7,27.1,21.8,78,81,73,0.341,17.8,19.5,15.3,0.745,1.1,307,35,3.0,-0.00014,-0.00019,40.1,42.3,30,0,0,0.0,.,0.00,0.00
15min,AgWx,bigpiney,439,21OCT2018:06:15:00,24.9,12.45,24.3,24.2,24.0,24.7,23.1,79,81,76,0.352,18.3,18.9,17.1,1.184,0.7,224,12,2.1,-0.00016,-0.00023,40.0,42.4,30,0,0,0.0,.,0.00,0.00
15min,AgWx,bigpiney,439,21OCT2018:06:30:00,24.5,12.45,24.3,24.9,23.8,24.9,23.0,79,80,76,0.355,18.2,19.0,16.7,0.329,0.6,266,19,2.3,-0.00017,-0.00025,40.0,42.3,30,0,0,0.0,.,0.00,0.00
15min,AgWx,bigpiney,439,21OCT2018:06:45:00,24.2,12.42,25.8,25.3,25.3,25.6,24.9,76,78,76,0.355,19.0,19.1,18.7,0,0.6,297,25,1.4,-0.00018,-0.00026,39.9,42.3,30,0,0,0.0,.,0.00,0.00
15min,AgWx,bigpiney,439,21OCT2018:07:00:00,24.1,12.42,22.9,23.3,22.9,25.4,21.4,79,82,75,0.344,17.4,19.0,15.6,0.811,0.5,242,8.3,2.1,-0.00017,-0.00025,39.9,42.3,31,0,0,0.0,.,0.00,0.00